Location: Engle Ridge Observatory
(44.8122°N, 85.4398°W)
Time: 13:40:56
(UTC-04:00)

Daily predictions for brighter satellites

Satellite Brightness Start Highest point End
(mag) Time Altitude Azimuth Time Altitude Azimuth Time Altitude Azimuth
Cosmos 1869 Rocket 3.7 20:59:11 10° N 21:03:39 61° E 21:08:05 10° SSE
Cosmos 1900 4.5 20:59:24 10° NNW 21:04:32 89° ENE 21:09:40 10° SSE
Cosmos 1825 3.6 21:01:39 10° NNE 21:04:37 21° ENE 21:07:35 10° ESE
Cosmos 1302 Rocket 4.2 21:04:30 10° S 21:09:30 51° ESE 21:14:32 10° NNE
SL-16 R/B 3.2 21:05:09 10° SSE 21:09:34 24° ESE 21:14:00 10° NE
Envisat 3.5 21:04:52 10° SE 21:09:39 43° ENE 21:14:27 10° N
Milstar 3 4.3 21:05:17 10° SW 21:11:31 23° S 21:16:39 10° SE
Cosmos 1151 Rocket 4.4 21:08:41 10° SSW 21:12:50 44° WNW 21:16:59 10° N
Cosmos 1939 Rocket 3.7 21:10:43 10° SE 21:14:23 33° ENE 21:18:01 10° N
DNEPR-1 R/B 4.1 21:10:28 10° SSW 21:16:28 84° SE 21:21:25 10° NE
ATLAS 5 CENTAUR R/B 3.7 21:13:32 10° NNW 21:18:27 28° NE 21:23:44 10° E
CZ-4B DEB 3.3 21:16:28 10° SE 21:19:18 36° ENE 21:22:09 10° N
Meteor 2-20 4.5 21:18:27 10° N 21:24:33 67° E 21:30:39 10° SSE
USA 234 3.3 21:20:23 10° SE 21:26:58 86° SW 21:33:34 10° NW
Resurs 01 Rocket 2.8 21:26:21 10° S 21:30:37 46° W 21:34:56 10° NNW
Atlas Centaur 2 4.3 21:26:36 10° S 21:30:43 16° SSE 21:34:14 12° SE
Helios 1A 3.0 21:28:26 10° SSE 21:32:39 85° ENE 21:36:56 10° NNW
GRACE-1 4.4 21:30:38 10° N 21:33:21 60° W 21:36:03 10° SSW
GRACE-2 4.4 21:31:02 10° N 21:33:46 60° W 21:36:28 10° SSW
Cosmos 2227 4.3 21:29:08 10° NNW 21:34:55 82° WSW 21:40:37 10° SSE
SAR-Lupe-4 3.6 21:33:48 10° SSE 21:37:23 87° WSW 21:41:01 10° NNW
Molniya-1 2.8 21:35:45 10° SSW 21:37:26 43° SE 21:39:40 10° NE
Cosmos 2360 4.2 21:32:05 10° SSW 21:37:48 87° ESE 21:43:35 10° NNE
Cosmos 2142 Rocket 4.4 21:37:21 10° S 21:43:26 74° E 21:49:35 10° NNE
ERS-1 Rocket 3.4 21:42:11 14° SE 21:46:18 46° ENE 21:51:05 10° N
Cosmos 1408 2.5 21:43:10 10° N 21:46:53 68° E 21:50:07 13° SSE
ERBS 2.5 21:47:05 10° NW 21:50:32 69° SW 21:52:43 21° SE
Cosmos 1455 3.6 21:49:40 10° SSW 21:53:16 40° WNW 21:56:53 10° N
Cosmos 1869 3.5 21:53:16 10° SSW 21:57:11 71° W 22:01:09 10° N
Cosmos 220 Rocket 4.1 21:54:21 10° NNW 21:58:49 79° WSW 22:02:29 15° SSE
CENTAUR R/B 3.9 21:55:18 10° WSW 22:01:15 44° NW 22:08:00 10° NNE
Cosmos 2026 Rocket 4.0 21:56:39 10° N 22:02:56 84° W 22:09:06 10° S
SeaSat 1 3.0 22:00:11 20° ESE 22:03:09 43° NE 22:07:50 10° NNW
Cosmos 1992 Rocket 4.2 21:58:21 10° S 22:03:23 50° ESE 22:08:26 10° NNE
H-2A R/B 4.0 22:07:13 13° ENE 22:08:19 14° ENE 22:10:31 10° NNE
Cosmos 1908 Rocket 4.2 22:05:25 10° N 22:09:28 37° ENE 22:11:04 27° ESE
MetOp-A 4.3 22:08:20 22° SE 22:11:43 57° ENE 22:16:57 10° N
Cosmos 1933 3.2 22:14:42 18° S 22:17:40 71° E 22:21:42 10° NNE
Cosmos 1503 Rocket 4.4 22:13:30 10° NNW 22:18:41 60° WSW 22:22:48 16° S
Cosmos 1867 4.1 22:14:43 10° NNW 22:20:00 46° NE 22:22:40 26° ESE
Cosmos 2263 Rocket 2.1 22:15:36 10° NNW 22:21:12 83° ENE 22:24:22 27° SSE
COSMOS 2428 4.4 22:23:05 16° E 22:23:05 16° E 22:25:23 10° ENE
YAOGAN 6 2.8 22:20:14 23° S 22:22:22 67° W 22:26:00 10° NNW
Cosmos 1782 Rocket 4.4 22:19:24 10° N 22:23:20 31° ENE 22:24:09 29° E
Okean 2 Rocket 4.4 22:19:46 10° NNE 22:23:31 25° ENE 22:24:13 24° E
Abrixas rocket 2.4 22:20:22 10° WSW 22:23:38 68° NNW 22:25:19 26° ENE
Cosmos 1655 Rocket 4.3 22:18:20 10° NNW 22:24:43 72° W 22:30:51 11° S
H-2A R/B 2.8 22:24:03 27° ESE 22:25:43 34° ENE 22:30:10 10° N
Cosmos 2322 Rocket 2.2 22:20:34 10° SSW 22:26:11 84° WNW 22:31:51 10° NNE
Terra 3.4 22:26:53 19° E 22:27:56 21° ENE 22:31:25 10° NNE
Cosmos 1733 Rocket 3.7 22:26:53 10° NNW 22:31:15 55° W 22:34:27 18° SSW
Helios 1B rocket 4.4 22:29:47 10° N 22:33:22 29° WNW 22:36:55 10° SW
Meteor 2-10 Rocket 3.7 22:30:49 19° S 22:35:05 69° E 22:40:52 10° NNE
Cosmos 2360 Rocket 2.4 22:34:16 25° S 22:37:16 49° ESE 22:42:43 10° NE
Lacrosse 4 Rocket 2.5 22:33:32 10° NW 22:37:35 41° WSW 22:39:39 24° SSW
Cosmos 1980 Rocket 4.3 22:33:37 10° WSW 22:38:31 29° NW 22:43:28 10° N
Cosmos 1862 Rocket 4.0 22:34:07 10° SSW 22:38:31 63° W 22:42:59 10° N
SL-08 RB Rocket 3.9 22:37:52 41° SE 22:39:10 57° ENE 22:43:39 10° N
Cosmos 1825 4.1 22:36:58 10° NNW 22:40:13 27° W 22:43:21 11° SSW
Cosmos 1862 4.5 22:37:49 10° NNW 22:41:37 40° W 22:44:08 19° SSW
Cosmos 2322 3.9 22:40:41 33° SSE 22:42:42 46° ESE 22:48:08 10° NE
Cosmos 968 Rocket 3.4 22:39:25 10° NNW 22:44:38 75° ENE 22:46:23 42° SE
GENESIS II 4.2 22:41:29 10° SW 22:45:33 88° NW 22:49:38 10° NE
NOAA 11 4.3 22:42:49 28° S 22:45:50 78° WSW 22:51:22 10° NNW
Cosmos 2266 Rocket 3.9 22:44:27 10° N 22:50:45 82° E 22:53:45 34° SSE
ASTEX 1 4.5 22:50:52 28° E 22:51:13 28° ENE 22:55:26 10° NNE
YAOGAN 11 4.3 22:50:13 37° S 22:51:49 66° WSW 22:56:09 10° NNW
SL-16 R/B 2.9 22:47:43 10° SW 22:53:15 55° WNW 22:58:51 10° NNE
CZ-4C R/B 4.2 22:49:04 10° NNW 22:54:51 28° NNE 22:59:44 15° E
Okean 1-7 3.3 22:55:18 50° E 22:55:18 50° E 22:59:30 10° NNE
SPOT 5 2.9 22:54:50 40° S 22:56:35 76° WSW 23:01:19 10° NNW
Cosmos 1782 4.3 22:59:16 25° NE 22:59:16 25° NE 23:01:31 10° NNE
Cosmos 1703 Rocket 3.4 22:57:22 56° S 22:58:17 82° E 23:02:44 10° N
Cosmos 2221 Rocket 3.5 23:00:03 63° ESE 23:00:12 64° E 23:04:37 10° NNE
Cosmos 2333 Rocket 4.2 23:04:54 13° ENE 23:04:54 13° ENE 23:06:05 10° ENE
ATLAS 5 CENTAUR R/B 2.4 22:57:47 10° NW 23:03:46 81° SW 23:05:54 45° SSE
Nimbus 7 Rocket 4.3 22:59:23 10° NNE 23:05:21 80° ESE 23:08:11 33° S
Meteor 1-26 Rocket 4.4 23:06:23 24° SSW 23:09:53 74° WNW 23:15:41 10° N
Cosmos 2237 Rocket 4.4 23:14:49 11° ENE 23:14:49 11° ENE 23:15:05 10° ENE
Cosmos 2278 Rocket 3.6 23:08:12 10° N 23:12:50 25° NE 23:14:18 22° ENE
SPOT 1/Viking Rocket 3.6 23:11:28 50° S 23:12:51 78° WSW 23:18:06 10° NNW
ARGOS 3.5 23:11:51 37° SSW 23:13:50 59° W 23:19:09 10° NNW
Cosmos 1633 4.5 23:10:42 10° NNE 23:12:32 21° NE 23:12:32 21° NE
CARTOSAT-1 4.0 23:15:41 50° ENE 23:15:41 50° ENE 23:19:38 10° N
Atlas Centaur 2 4.1 23:12:43 10° SW 23:16:54 24° SSW 23:16:54 24° SSW
Cosmos 1553 Rocket 4.5 23:23:20 41° E 23:23:33 41° E 23:29:19 10° NNE
BREEZE-M DEB (TANK) 4.5 23:20:22 10° W 23:24:50 86° NNE 23:42:26 10° ESE
Cosmos 1844 Rocket 2.7 23:19:31 10° NNW 23:25:03 62° ENE 23:25:44 57° E
Nadezhda 2 Rocket 4.5 23:19:57 10° N 23:26:25 88° W 23:28:13 51° S
MOS 1-B Rocket 4.4 23:26:13 34° SSW 23:28:33 52° W 23:34:05 10° NNW
Meteor 1-10 Rocket 4.2 23:35:21 67° SE 23:35:55 73° E 23:41:48 10° NNE
Meteor 1-11 Rocket 4.0 23:32:40 10° N 23:38:03 50° ENE 23:38:03 50° ENE
SeaSat 1 3.8 23:39:59 28° SW 23:40:47 29° WSW 23:45:05 10° NW
Cosmos 1777 Rocket 4.0 23:37:32 10° NNW 23:42:48 70° WSW 23:43:02 69° SW
Cosmos 2219 Rocket 3.1 23:45:20 35° ENE 23:45:20 35° ENE 23:49:01 10° NE
H-2A R/B 2.5 23:44:20 58° WNW 23:44:20 58° WNW 23:48:05 10° NNW
Landsat 7 4.3 23:50:09 50° WSW 23:50:12 50° W 23:54:51 10° NNW
S3M 3.9 23:51:34 63° E 23:51:36 63° E 23:57:43 10° NNE
